Location: Barcelona
(41.3830°N, 2.1830°E)
Time: 01:54:41
(UTC+02:00)

ISS - Pass Details

Date: 13 July 2019
Orbit: 409 x 418 km, 51.6° (Epoch: 23 July)

Event Time Altitude Azimuth Distance (km) Brightness Sun altitude
Rises 05:33:55 0° 310° (NW) 2,344 -0.1 -9.2°
Reaches altitude 10° 05:36:18 10° 325° (NW) 1,479 -0.9 -8.9°
Maximum altitude 05:39:01 23° 20° (NNE) 920 -1.2 -8.5°
Drops below altitude 10° 05:41:45 10° 76° (ENE) 1,473 0.2 -8.1°
Sets 05:44:06 0° 92° (E) 2,332 0.9 -7.8°
